DLH8EM LIRN-EDDF

Flight info

Callsign DLH8EM
Flight time N/A
Altitude 36000
Route ALAXI DCT INSOX DCT PEMAR DCT GENGI DCT UNUMU DCT SUMIR DCT BRENO DCT KONIN DCT ERNAS T161 DEBHI DEBHI1C
Aircraft A321/M-SDE2E3FGIJ1LORWXYZ/HB1

Departure

Time 2026-04-27 18:21
Airport Naples International Airport (LIRN)

Arrival

Time N/A
Airport Frankfurt Main Airport (EDDF)
Time Latitude Longitude Altitude Speed Heading
2026-04-27 18:02 40.87878 14.28343 299 ft 0 kts 187°
2026-04-27 18:13 40.87889 14.28345 299 ft 4 kts 187°
2026-04-27 18:13 40.87912 14.28349 296 ft 2 kts 187°
2026-04-27 18:14 40.87938 14.28366 297 ft 4 kts 253°
2026-04-27 18:14 40.87940 14.28386 296 ft 4 kts 277°
2026-04-27 18:14 40.87939 14.28400 296 ft 1 kts 277°
2026-04-27 18:16 40.87943 14.28354 294 ft 13 kts 278°
2026-04-27 18:16 40.87957 14.28214 299 ft 14 kts 277°
2026-04-27 18:17 40.88007 14.28144 298 ft 12 kts 13°
2026-04-27 18:17 40.88064 14.28253 295 ft 18 kts 81°
2026-04-27 18:17 40.88056 14.28437 291 ft 21 kts 95°
2026-04-27 18:17 40.88067 14.28637 285 ft 23 kts 63°
2026-04-27 18:18 40.88166 14.28817 281 ft 25 kts 52°
2026-04-27 18:18 40.88278 14.29011 274 ft 28 kts 53°
2026-04-27 18:18 40.88394 14.29213 266 ft 27 kts 52°
2026-04-27 18:18 40.88513 14.29415 258 ft 27 kts 52°
2026-04-27 18:19 40.88631 14.29622 251 ft 26 kts 52°
2026-04-27 18:19 40.88745 14.29818 244 ft 27 kts 52°
2026-04-27 18:19 40.88859 14.30017 239 ft 28 kts 53°
2026-04-27 18:19 40.88967 14.30203 233 ft 21 kts 52°
2026-04-27 18:20 40.89071 14.30237 230 ft 18 kts 336°
2026-04-27 18:20 40.89100 14.30127 237 ft 13 kts 240°
2026-04-27 18:20 40.88955 14.29831 248 ft 81 kts 237°
2026-04-27 18:20 40.88510 14.28883 279 ft 157 kts 237°
2026-04-27 18:21 40.87901 14.27594 1020 ft 168 kts 239°
2026-04-27 18:21 40.87635 14.26120 1897 ft 166 kts 279°
2026-04-27 18:21 40.88080 14.24687 2297 ft 178 kts 299°
2026-04-27 18:21 40.88709 14.23164 2521 ft 199 kts 299°
2026-04-27 18:22 40.89402 14.21478 2773 ft 217 kts 298°
2026-04-27 18:22 40.90125 14.19707 3357 ft 220 kts 298°
2026-04-27 18:22 40.90852 14.17917 3974 ft 222 kts 297°
2026-04-27 18:22 40.91587 14.16103 4587 ft 225 kts 297°
2026-04-27 18:23 40.92343 14.14273 5190 ft 229 kts 302°
2026-04-27 18:23 40.93465 14.12769 5759 ft 234 kts 327°
2026-04-27 18:23 40.95026 14.11985 6066 ft 252 kts 352°
2026-04-27 18:23 40.96854 14.11724 6305 ft 274 kts 354°
2026-04-27 18:24 40.98789 14.11463 6871 ft 283 kts 354°
2026-04-27 18:24 41.00764 14.11196 7538 ft 287 kts 354°
2026-04-27 18:24 41.02756 14.10922 8278 ft 289 kts 354°
2026-04-27 18:24 41.04761 14.10643 9021 ft 291 kts 353°
2026-04-27 18:25 41.06781 14.10359 9745 ft 293 kts 353°
2026-04-27 18:25 41.08823 14.10068 10358 ft 301 kts 353°
2026-04-27 18:25 41.10983 14.09758 10503 ft 323 kts 353°
2026-04-27 18:25 41.13247 14.09430 10787 ft 337 kts 354°
2026-04-27 18:26 41.15594 14.09088 11380 ft 341 kts 354°
2026-04-27 18:26 41.17938 14.08554 12010 ft 344 kts 344°
2026-04-27 18:26 41.20164 14.07379 12649 ft 346 kts 332°
2026-04-27 18:26 41.22157 14.05568 13292 ft 349 kts 320°
2026-04-27 18:27 41.24009 14.03463 13909 ft 352 kts 320°
2026-04-27 18:27 41.25899 14.01322 14196 ft 365 kts 320°
2026-04-27 18:27 41.27875 13.99094 14317 ft 381 kts 320°
2026-04-27 18:27 41.29905 13.96737 14439 ft 395 kts 315°
2026-04-27 18:28 41.31842 13.94055 14563 ft 408 kts 314°
2026-04-27 18:28 41.33813 13.91287 14849 ft 415 kts 314°
2026-04-27 18:28 41.35796 13.88482 15296 ft 417 kts 313°
2026-04-27 18:28 41.37781 13.85663 15802 ft 418 kts 313°
2026-04-27 18:29 41.39778 13.82827 16241 ft 421 kts 313°
2026-04-27 18:29 41.41785 13.79981 16709 ft 422 kts 313°
2026-04-27 18:29 41.43801 13.77127 17195 ft 424 kts 313°
2026-04-27 18:29 41.45823 13.74264 17683 ft 425 kts 313°
2026-04-27 18:30 41.47849 13.71387 18146 ft 426 kts 313°
2026-04-27 18:30 41.49877 13.68504 18570 ft 427 kts 313°
2026-04-27 18:30 41.51915 13.65610 18930 ft 429 kts 313°
2026-04-27 18:30 41.53963 13.62702 19283 ft 431 kts 313°
2026-04-27 18:31 41.56019 13.59772 19632 ft 434 kts 313°
2026-04-27 18:31 41.58085 13.56822 19977 ft 436 kts 313°
2026-04-27 18:31 41.60163 13.53853 20328 ft 438 kts 313°
2026-04-27 18:31 41.62253 13.50866 20679 ft 441 kts 313°
2026-04-27 18:32 41.64353 13.47865 21008 ft 443 kts 313°
2026-04-27 18:32 41.66465 13.44844 21324 ft 446 kts 313°
2026-04-27 18:32 41.68586 13.41803 21659 ft 448 kts 313°
2026-04-27 18:32 41.70716 13.38746 21995 ft 450 kts 313°
2026-04-27 18:33 41.72854 13.35671 22336 ft 452 kts 313°
2026-04-27 18:33 41.75004 13.32576 22645 ft 455 kts 313°
2026-04-27 18:33 41.77159 13.29466 22933 ft 457 kts 313°
2026-04-27 18:33 41.79323 13.26338 23209 ft 458 kts 313°
2026-04-27 18:34 41.81493 13.23197 23474 ft 460 kts 313°
2026-04-27 18:34 41.83672 13.20046 23711 ft 462 kts 313°
2026-04-27 18:34 41.85860 13.16880 23918 ft 463 kts 313°
2026-04-27 18:34 41.88054 13.13701 24093 ft 465 kts 313°
2026-04-27 18:35 41.90225 13.10550 24268 ft 467 kts 313°
2026-04-27 18:35 41.92426 13.07345 24449 ft 468 kts 313°
2026-04-27 18:35 41.94633 13.04124 24620 ft 469 kts 313°
2026-04-27 18:35 41.96843 13.00895 24779 ft 470 kts 313°
2026-04-27 18:36 41.99153 12.97789 24924 ft 471 kts 321°
2026-04-27 18:36 42.01934 12.95485 25073 ft 472 kts 336°
2026-04-27 18:36 42.05082 12.94232 25211 ft 474 kts 351°
2026-04-27 18:36 42.08380 12.94143 25348 ft 478 kts
2026-04-27 18:37 42.11624 12.95128 25481 ft 480 kts 14°
2026-04-27 18:37 42.14852 12.96329 25627 ft 481 kts 14°
2026-04-27 18:37 42.18083 12.97539 25777 ft 482 kts 14°
2026-04-27 18:37 42.21316 12.98753 25973 ft 482 kts 14°
2026-04-27 18:38 42.24537 12.99964 26305 ft 478 kts 14°
2026-04-27 18:38 42.27720 13.01154 26804 ft 472 kts 14°
2026-04-27 18:38 42.30876 13.02330 27151 ft 470 kts 14°
2026-04-27 18:38 42.34022 13.03503 27439 ft 468 kts 14°
2026-04-27 18:39 42.37183 13.04524 27705 ft 466 kts
2026-04-27 18:39 42.40407 13.04808 27960 ft 464 kts 357°
2026-04-27 18:39 42.43603 13.04303 28208 ft 462 kts 347°
2026-04-27 18:39 42.46729 13.03300 28452 ft 461 kts 346°
2026-04-27 18:40 42.49849 13.02285 28699 ft 461 kts 346°
2026-04-27 18:40 42.52963 13.01270 28974 ft 460 kts 346°
2026-04-27 18:40 42.56073 13.00260 29256 ft 459 kts 346°
2026-04-27 18:40 42.59178 12.99255 29544 ft 458 kts 346°
2026-04-27 18:41 42.62279 12.98251 29833 ft 458 kts 346°
2026-04-27 18:41 42.65332 12.97266 30108 ft 457 kts 346°
2026-04-27 18:41 42.68423 12.96268 30357 ft 456 kts 346°
2026-04-27 18:41 42.71546 12.95257 30610 ft 455 kts 346°
2026-04-27 18:42 42.74623 12.94259 30866 ft 454 kts 346°
2026-04-27 18:42 42.76660 12.93596 31029 ft 454 kts 346°
2026-04-27 18:42 42.80761 12.92258 31363 ft 452 kts 346°
2026-04-27 18:42 42.83821 12.91257 31603 ft 452 kts 346°
2026-04-27 18:43 42.86870 12.90260 31840 ft 451 kts 346°
2026-04-27 18:43 42.89925 12.89259 32080 ft 450 kts 346°